Find Starlink 32628

NORAD ID: 62122 Int'l Des: 2024-222 Owner: SPXS Country: US Constellation: starlink operational
LEOCIRCULAR

Current View

Loading 3D Globe...

About Starlink 32628

Starlink 32628 (NORAD 62122) is a starlink constellation satellite (v2 mini) launched Nov 27, 2024 by SPXS of US. It operates in LEO, CIRCULAR orbit with a mass of 730.00 kg.

Upcoming Passes

Passes for default location (London). Set your location on the main map for personalized predictions.

Altitude History

Loading altitude history...

Two-Line Element Set

1 62122U 24222J 26262.98009229 .00007576 00000-0 28444-3 0 9992
2 62122 43.0021 118.8950 0001320 265.2949 94.7752 15.27590951102630
Epoch: Sep 19, 2026 • Age: 23 hours

Current Status

Altitude 494.9 km
Apogee / Perigee N/A
Velocity 7.62 km/s
Sub-Earth Point -41.90°S, 59.66°E
Launch Date Nov 27, 2024
Age 1.8 years
Type internet

Technical Details

Classification Payload
Mass 730.00 kg
Dry Mass 700.00 kg
Length 0.30 m
Span 29.00 m
Shape ? Box + pan
Manufacturer SPXS
Bus Type Starlink V2M
Phase Status In Orbit
Owner/State SPXS/US

Most Searched